Worcester, MA

12:13 AM EDT on July 24, 2017 (GMT -0400)
Worcester Regional

Weather History for KORH - September, 2013

Change the Weather History Date:

Monday, September 16, 2013

  Actual Average Record
Temperature  
Mean Temperature 54 °F 61 °F  
Max Temperature 65 °F 70 °F 92 °F (1939)
Min Temperature 42 °F 53 °F 36 °F (1899)
Degree Days  
Heating Degree Days 11 5  
Month to date heating degree days 59 51  
Since 1 July heating degree days 78 90  
Cooling Degree Days 0 1  
Month to date cooling degree days 40 32  
Year to date cooling degree days 571 458  
Growing Degree Days 5 (Base 50)    
Moisture  
Dew Point 46 °F    
Average Humidity 73    
Maximum Humidity 89    
Minimum Humidity 56    
Precipitation  
Precipitation T in 0.13 in 4.67 in (1933)
Month to date precipitation 2.73 1.90  
Year to date precipitation 35.75 33.26  
Snow  
Snow 0.00 in 0.00 in 0.00 in (2002)
Month to date snowfall 0.0 0.0  
Since 1 July snowfall 0.0 0.0  
Since 1 September snowfall 0.0 0.0  
Snow Depth -    
Sea Level Pressure  
Sea Level Pressure 30.10 in    
Wind  
Wind Speed 10 mph (NW)    
Max Wind Speed 18 mph    
Max Gust Speed 22 mph    
Visibility 10 miles    
Events Rain    
T = Trace of Precipitation, MM = Missing Value Source: NWS Daily Summary

Daily Weather History Graph

Daily Weather History Graph

Search for Another Location

Airport or City:

Trip Planner

Search our weather history database for the weather conditions in past years. The results will help you decide how hot, cold, wet, or windy it might be!

Date:

Astronomy

Sep. 16, 2013 Rise Set
Actual Time 6:28 AM EDT 6:55 PM EDT
Civil Twilight 6:00 AM EDT 7:23 PM EDT
Nautical Twilight 5:27 AM EDT 7:56 PM EDT
Astronomical Twilight 4:53 AM EDT 8:30 PM EDT
Moon 5:04 PM EDT (9/16) 3:08 AM EDT (9/16)
Length of Visible Light 13h 22m
Length of Day
12h 26m
Waxing Gibbous, 90% of the Moon is Illuminated
Sep 16
Waxing Gibbous
Sep 19
Full
Sep 26
Last Quarter
Oct 4
New
Oct 11
First Quarter

Hourly Weather History & Observations

Time (EDT) Temp. Windchill Dew Point Humidity Pressure Visibility Wind Dir Wind Speed Gust Speed Precip Events Conditions
12:54 AM 55.0 °F - 46.9 °F 74% 30.07 in 10.0 mi West 8.1 mph - N/A   Clear
1:54 AM 54.0 °F - 46.9 °F 77% 30.06 in 10.0 mi West 8.1 mph - N/A   Clear
2:54 AM 55.0 °F - 46.9 °F 74% 30.05 in 10.0 mi West 9.2 mph - N/A   Clear
3:54 AM 54.0 °F - 46.9 °F 77% 30.04 in 10.0 mi West 10.4 mph - N/A   Clear
4:54 AM 54.0 °F - 48.0 °F 80% 30.04 in 10.0 mi West 9.2 mph - N/A   Clear
5:54 AM 55.0 °F - 48.0 °F 77% 30.04 in 10.0 mi West 8.1 mph - N/A   Clear
6:54 AM 54.0 °F - 48.0 °F 80% 30.07 in 10.0 mi West 9.2 mph - N/A   Partly Cloudy
7:54 AM 55.0 °F - 48.0 °F 77% 30.07 in 10.0 mi WNW 12.7 mph - N/A   Mostly Cloudy
8:54 AM 55.0 °F - 50.0 °F 83% 30.08 in 10.0 mi WNW 12.7 mph - 0.00 in Rain Light Rain
9:54 AM 54.0 °F - 50.0 °F 86% 30.08 in 10.0 mi West 9.2 mph - 0.00 in Rain Light Rain
10:54 AM 55.0 °F - 51.1 °F 86% 30.08 in 10.0 mi West 6.9 mph - 0.00 in   Overcast
11:54 AM 57.0 °F - 50.0 °F 77% 30.08 in 10.0 mi West 9.2 mph - N/A   Overcast
12:54 PM 61.0 °F - 50.0 °F 67% 30.06 in 10.0 mi NNW 15.0 mph 20.7 mph N/A   Partly Cloudy
1:54 PM 64.0 °F - 48.9 °F 58% 30.06 in 10.0 mi NNW 8.1 mph 17.3 mph N/A   Scattered Clouds
2:54 PM 62.1 °F - 48.9 °F 62% 30.06 in 10.0 mi NW 9.2 mph - N/A   Overcast
3:54 PM 61.0 °F - 48.9 °F 64% 30.06 in 10.0 mi NW 8.1 mph - N/A   Overcast
4:54 PM 62.1 °F - 48.9 °F 62% 30.07 in 10.0 mi NNW 11.5 mph - N/A   Overcast
5:54 PM 61.0 °F - 46.9 °F 60% 30.09 in 10.0 mi NNW 8.1 mph - N/A   Scattered Clouds
6:54 PM 57.0 °F - 46.9 °F 69% 30.12 in 10.0 mi NNW 11.5 mph - N/A   Partly Cloudy
7:54 PM 54.0 °F - 42.1 °F 64% 30.15 in 10.0 mi NNW 11.5 mph - N/A   Clear
8:54 PM 50.0 °F - 37.9 °F 63% 30.19 in 10.0 mi NNW 11.5 mph - N/A   Clear
9:54 PM 48.0 °F - 36.0 °F 63% 30.22 in 10.0 mi North 12.7 mph 19.6 mph N/A   Clear
10:54 PM 46.0 °F 40.6 °F 35.1 °F 66% 30.25 in 10.0 mi North 11.5 mph 19.6 mph N/A   Clear
11:54 PM 44.1 °F 38.1 °F 34.0 °F 68% 30.26 in 10.0 mi North 11.5 mph - N/A   Clear